Regional Weather Roundup
Issued by NWS Charleston, WV

Home | Current Version | Previous Version | Text Only | Print | Product List | Glossary Off
Versions: 1 2 3 4 5 6 7 8 9 10 11 12 13 14 15 16 17 18 19 20 21 22 23 24 25 26 27 28 29 30 31 32 33 34 35 36 37 38 39 40 41 42 43 44 45 46 47 48 49 50

000
ASUS41 KRLX 171310
RWRRLX
West Virginia Regional Weather Roundup
National Weather Service Charleston WV
800 AM EST WED DEC 17 2014

Note: "fair" indicates few or no clouds below 12,000 feet with no
significant weather and/or obstructions to visibility.

WVZ003-171400-
Northern Panhandle of West Virginia

CITY           SKY/WX    TMP DP  RH WIND       PRES   REMARKS
WHEELING       CLOUDY    35  30  82 W14G20    30.06R
$$

WVZ009-171400-
Northwest West Virginia

CITY           SKY/WX    TMP DP  RH WIND       PRES   REMARKS
PARKERSBURG    CLOUDY    36  29  75 W13G29    30.17R
$$

WVZ006-171400-
Western West Virginia

CITY           SKY/WX    TMP DP  RH WIND       PRES   REMARKS
HUNTINGTON     LGT RAIN  35  34  96 VRB5      30.19R
$$

WVZ015-171400-
West Central West Virginia

CITY           SKY/WX    TMP DP  RH WIND       PRES   REMARKS
CHARLESTON     LGT RAIN  37  34  89 W14G20    30.16R
$$

WVZ022-031-171400-
North Central West Virginia

CITY           SKY/WX    TMP DP  RH WIND       PRES   REMARKS
CLARKSBURG     CLOUDY    37  32  82 W14       30.09R
MORGANTOWN     CLOUDY    37  30  75 W6        30.08R
$$

WVZ025-035-042-045-171400-
Southern West Virginia

CITY           SKY/WX    TMP DP  RH WIND       PRES   REMARKS
BECKLEY        CLOUDY    36  33  89 NW9       30.08S
LOGAN          MIX PCPN  37  37 100 W7        30.14R
BLUEFIELD      CLOUDY    38  34  85 W15G22    30.08R
LEWISBURG      CLOUDY    39  34  81 W6        30.06S
$$

WVZ047-171400-
Northern Mountains of West Virginia

CITY           SKY/WX    TMP DP  RH WIND       PRES   REMARKS
ELKINS         LGT RAIN  36  35  96 W9        30.07R
$$

WVZ052-171400-
Eastern Panhandle of West Virginia

CITY           SKY/WX    TMP DP  RH WIND       PRES   REMARKS
MARTINSBURG    CLOUDY    47  35  63 NW5       29.98R
PETERSBURG     CLEAR     44  32  62 W8G17     30.00R
$$


USA.gov is the U.S. government's official web portal to all federal, state and local government web resources and services.